Corpus Christi, TX

10:53 PM CDT on May 27, 2017 (GMT -0500)
Corpus Christi International

Weather History for KCRP - April, 2012

Change the Weather History Date:

Monday, April 30, 2012

  Actual Average Record
Temperature  
Mean Temperature 82 °F 75 °F  
Max Temperature 89 °F 84 °F 100 °F (1953)
Min Temperature 75 °F 67 °F 45 °F (1996)
Degree Days  
Heating Degree Days 0 0  
Month to date heating degree days 0 15  
Since 1 July heating degree days 611 898  
Cooling Degree Days 17 10  
Month to date cooling degree days 375 237  
Year to date cooling degree days 778 428  
Growing Degree Days 32 (Base 50)    
Moisture  
Dew Point 71 °F    
Average Humidity 75    
Maximum Humidity 94    
Minimum Humidity 55    
Precipitation  
Precipitation 0.00 in 0.08 in 4.17 in (1977)
Month to date precipitation 2.58 1.84  
Year to date precipitation 8.47 7.20  
Snow  
Snow 0.00 in - - ()
Month to date snowfall 0.0  
Since 1 July snowfall 0.0  
Snow Depth 0.00 in    
Sea Level Pressure  
Sea Level Pressure 29.94 in    
Wind  
Wind Speed 17 mph (SE)    
Max Wind Speed 25 mph    
Max Gust Speed 35 mph    
Visibility 10 miles    
Events      
T = Trace of Precipitation, MM = Missing Value Source: NWS Daily Summary

Daily Weather History Graph

Daily Weather History Graph

Search for Another Location

Airport or City:

Trip Planner

Search our weather history database for the weather conditions in past years. The results will help you decide how hot, cold, wet, or windy it might be!

Date:

Astronomy

Apr. 30, 2012 Rise Set
Actual Time 6:50 AM CDT 8:03 PM CDT
Civil Twilight 6:26 AM CDT 8:28 PM CDT
Nautical Twilight 5:56 AM CDT 8:57 PM CDT
Astronomical Twilight 5:26 AM CDT 9:28 PM CDT
Moon 2:32 PM CDT (4/30) 2:43 AM CDT (4/30)
Length of Visible Light 14h 02m
Length of Day
13h 13m
Waxing Gibbous, 64% of the Moon is Illuminated
Apr 30
Waxing Gibbous
May 5
Full
May 12
Last Quarter
May 20
New
May 28
First Quarter

Hourly Weather History & Observations

Time (CDT) Temp. Heat Index Dew Point Humidity Pressure Visibility Wind Dir Wind Speed Gust Speed Precip Events Conditions
12:51 AM 77.0 °F - 73.0 °F 88% 29.94 in 10.0 mi SE 17.3 mph - N/A   Scattered Clouds
1:31 AM 77.0 °F - 73.4 °F 89% 29.94 in 10.0 mi SE 19.6 mph 24.2 mph N/A   Mostly Cloudy
1:51 AM 77.0 °F - 73.0 °F 88% 29.94 in 9.0 mi SE 17.3 mph - N/A   Mostly Cloudy
2:34 AM 77.0 °F - 73.4 °F 89% 29.92 in 10.0 mi SE 16.1 mph - N/A   Scattered Clouds
2:51 AM 75.9 °F - 73.0 °F 91% 29.91 in 10.0 mi SE 15.0 mph 21.9 mph N/A   Scattered Clouds
3:51 AM 75.9 °F - 72.0 °F 87% 29.91 in 10.0 mi SE 13.8 mph - N/A   Partly Cloudy
4:51 AM 77.0 °F - 72.0 °F 84% 29.92 in 10.0 mi SSE 13.8 mph - N/A   Mostly Cloudy
5:51 AM 77.0 °F - 72.0 °F 84% 29.92 in 10.0 mi SE 17.3 mph - N/A   Scattered Clouds
6:51 AM 75.9 °F - 72.0 °F 87% 29.93 in 10.0 mi SE 12.7 mph - N/A   Partly Cloudy
7:51 AM 75.9 °F - 72.0 °F 87% 29.94 in 10.0 mi SSE 15.0 mph - N/A   Partly Cloudy
8:51 AM 80.1 °F 83.6 °F 71.1 °F 74% 29.96 in 10.0 mi SSE 19.6 mph - N/A   Scattered Clouds
9:51 AM 81.0 °F 84.9 °F 71.1 °F 72% 29.97 in 10.0 mi SSE 18.4 mph 25.3 mph N/A   Scattered Clouds
10:51 AM 84.0 °F 87.8 °F 69.1 °F 61% 29.97 in 10.0 mi SSE 18.4 mph 27.6 mph N/A   Scattered Clouds
11:51 AM 86.0 °F 90.1 °F 69.1 °F 57% 29.98 in 10.0 mi SE 19.6 mph 29.9 mph N/A   Scattered Clouds
12:51 PM 87.1 °F 91.3 °F 69.1 °F 55% 29.97 in 10.0 mi SE 18.4 mph 26.5 mph N/A   Mostly Cloudy
1:51 PM 87.1 °F 91.3 °F 69.1 °F 55% 29.96 in 10.0 mi SE 23.0 mph 29.9 mph N/A   Mostly Cloudy
2:51 PM 86.0 °F 90.7 °F 70.0 °F 59% 29.96 in 10.0 mi SE 17.3 mph 26.5 mph N/A   Scattered Clouds
3:51 PM 86.0 °F 90.1 °F 69.1 °F 57% 29.94 in 10.0 mi SE 21.9 mph 27.6 mph N/A   Mostly Cloudy
4:51 PM 84.0 °F 88.4 °F 70.0 °F 63% 29.93 in 10.0 mi ESE 19.6 mph - N/A   Mostly Cloudy
5:51 PM 82.9 °F 86.5 °F 69.1 °F 63% 29.91 in 10.0 mi SE 21.9 mph 27.6 mph N/A   Mostly Cloudy
6:51 PM 81.0 °F 84.4 °F 70.0 °F 69% 29.90 in 10.0 mi SE 19.6 mph 25.3 mph N/A   Mostly Cloudy
7:33 PM 78.8 °F - 69.8 °F 74% 29.90 in 10.0 mi SE 19.6 mph 26.5 mph N/A   Mostly Cloudy
7:51 PM 79.0 °F - 70.0 °F 74% 29.89 in 10.0 mi SE 18.4 mph 25.3 mph N/A   Mostly Cloudy
8:51 PM 78.1 °F - 71.1 °F 79% 29.91 in 10.0 mi SE 17.3 mph 24.2 mph N/A   Mostly Cloudy
9:51 PM 77.0 °F - 71.1 °F 82% 29.94 in 10.0 mi SSE 13.8 mph - N/A   Scattered Clouds
10:51 PM 77.0 °F - 71.1 °F 82% 29.95 in 10.0 mi SSE 11.5 mph - N/A   Scattered Clouds
11:01 PM 77.0 °F - 71.6 °F 83% 29.95 in 10.0 mi SSE 10.4 mph - N/A   Mostly Cloudy
11:14 PM 77.0 °F - 71.6 °F 83% 29.96 in 10.0 mi SSE 9.2 mph - N/A   Scattered Clouds
11:51 PM 75.9 °F - 71.1 °F 85% 29.95 in 10.0 mi SE 9.2 mph - N/A   Mostly Cloudy